View Data : List Evapotranspiration (ETo ) Reports


 
Search Evapotranspiration Reports
Station Fields:
Location:
Date Range:
Start Date:   End Date:
Searched: Report date on 5/24/2017.
Showing 1 - 50 of 97 Records. <Back  Page   Next>
DateTimeStation NumberStation NameGaugeReadingRefill LevelEvap AmtView
5/24/2017  12:00 AM  MN-AA-5  East Bethel 3.1 NE 2.40  0.05   
5/24/2017  5:00 AM  NY-CQ-22  Fredonia 0.8 WNW 3.81  0.12   
5/24/2017  5:20 AM  NM-SF-70  Santa Fe 10.5 S 3.98  0.13   
5/24/2017  5:30 AM  AL-MD-25  Huntsville 4.4 ENE 7.69  0.07   
5/24/2017  5:30 AM  IN-TN-1  Atlanta 4.4 W 4.15  0.15   
5/24/2017  5:30 AM  TX-KN-4  Boerne 5.1 NNW 3.28  0.14   
5/24/2017  5:35 AM  WA-SJ-28  Lopez Island 3.9 NNE 3.09  0.10   
5/24/2017  5:41 AM  MO-CP-7  Boonville 0.5 ESE 1.73  0.08   
5/24/2017  6:00 AM  CO-LR-623  Fort Collins 6.1 SW 2.65  0.13   
5/24/2017  6:00 AM  IN-PT-12  Valparaiso 4.3 SW 2.63  0.04   
5/24/2017  6:00 AM  NH-CS-7  Lancaster 0.5 N 0.18  0.01   
5/24/2017  6:00 AM  PA-MT-16  North Wales 1.3 WSW 3.05  0.04   
5/24/2017  6:00 AM  VA-BD-9  Bedford 3.2 W 2.60  0.00   
5/24/2017  6:00 AM  VA-FR-26  Ferrum 2.7 SW 1.85  0.00   
5/24/2017  6:00 AM  WY-PK-7  Cody 2.4 WSW 0.42  0.00   
5/24/2017  6:01 AM  WI-MC-4  Two Rivers 1.4 N 1.37  0.01   
5/24/2017  6:30 AM  IL-WN-2  Roscoe 1.6 ESE 0.45  0.05   
5/24/2017  6:30 AM  IA-LN-7  Central City 6.7 W 3.68  0.05   
5/24/2017  6:30 AM  OH-DR-1  Bradford 2.3 NW 4.12  0.04   
5/24/2017  6:30 AM  TN-PT-3  Byrdstown 2.8 SSW 8.06  0.06   
5/24/2017  6:30 AM  TX-ER-4  Stephenville 2.6 NNW 6.48  0.03   
5/24/2017  6:49 AM  NJ-MS-21  Randolph Twp 0.8 W 2.67  0.02   
5/24/2017  7:00 AM  AZ-PN-50  Saddlebrooke 1.5 SW 10.00  0.26   
5/24/2017  7:00 AM  CA-SD-132  Descanso 3.7N 8.20  0.25   
5/24/2017  7:00 AM  CA-SD-12  Poway 3.2NE 9.28  0.22   
5/24/2017  7:00 AM  CA-SN-100  Glen Ellen 1.9 NNW 4.88  0.13   
5/24/2017  7:00 AM  CA-TH-11  Red Bluff 5.1 NNW 6.72  0.23   
5/24/2017  7:00 AM  CO-LR-284  FCL 3.0 W 0.99  0.17   
5/24/2017  7:00 AM  CO-LG-6  Sterling 3.7 NNE 1.65  0.04   
5/24/2017  7:00 AM  CO-ME-79  Grand Junction 3.9 WSW 3.80  0.20   
5/24/2017  7:00 AM  IL-CP-1  Homer 2.0 N 3.58  0.05   
5/24/2017  7:00 AM  IL-GY-1  Carbon Hill 3.1 N 3.63  0.00   
5/24/2017  7:00 AM  IL-WF-14  El Paso 5.2 NNW 2.90  0.01   
5/24/2017  7:00 AM  IN-AL-5  Huntertown 2.6 ESE 3.28  0.12   
5/24/2017  7:00 AM  IN-HR-5  Milltown 5.7 SSE 5.79  0.17   
5/24/2017  7:00 AM  IN-MR-13  Speedway 6.2 SSW 4.56  0.11   
5/24/2017  7:00 AM  IN-NB-23  Columbia City 8.4 N 2.06  0.14   
5/24/2017  7:00 AM  IN-OW-9  Spencer 7.0 S 5.40  0.11   
5/24/2017  7:00 AM  IN-PT-133  Valparaiso 2.2 WNW 3.99  0.10   
5/24/2017  7:00 AM  IA-TY-2  New Market 4.7 N 3.39  0.05   
5/24/2017  7:00 AM  KS-MP-42  McPherson 2.9 E 4.43  0.09   
5/24/2017  7:00 AM  KS-SG-111  Wichita 5.9 WSW 5.25  0.10   
5/24/2017  7:00 AM  KY-FR-1  Frankfort 3.3 NE 5.55  0.03   
5/24/2017  7:00 AM  KY-ME-8  Harrodsburg 10.8 NW 4.54  0.09   
5/24/2017  7:00 AM  ME-CM-3  New Gloucester 3.0 SE 0.20  0.05   
5/24/2017  7:00 AM  ME-LN-1  Newcastle 2.1 SW 1.42  0.10   
5/24/2017  7:00 AM  ME-YK-2  Kittery Point 0.8 WSW 1.65  0.04   
5/24/2017  7:00 AM  MD-HR-23  Norrisville 0.6 WSW 4.68  0.05   
5/24/2017  7:00 AM  MA-BR-23  Attleboro 0.9 ENE 3.15  0.09   
5/24/2017  7:00 AM  MI-AN-1  Wayland 2.0 W 3.35  0.03